Time,TemperatureF,DewpointF,PressureIn,WindDirection,WindDirectionDegrees,WindSpeedMPH,WindSpeedGustMPH,Humidity,HourlyPrecipIn,Conditions,Clouds,dailyrainin,SoftwareType,DateUTC
2013-01-26 00:12:00,25.9,25.0,30.14,NNE,30,2.0,6.0,96,0.00,,,0.00,weatherlink.com 1.10,2013-01-26 05:12:00,
2013-01-26 00:27:00,25.8,25.0,30.14,North,360,5.0,9.0,96,0.00,,,0.00,weatherlink.com 1.10,2013-01-26 05:27:00,
2013-01-26 00:42:00,25.7,25.0,30.14,South,186,5.0,9.0,96,0.00,,,0.00,weatherlink.com 1.10,2013-01-26 05:42:00,
2013-01-26 00:57:00,25.5,25.0,30.13,NW,321,5.0,11.0,96,0.00,,,0.00,weatherlink.com 1.10,2013-01-26 05:57:00,
2013-01-26 01:12:00,25.3,24.0,30.13,NW,324,4.0,10.0,96,0.00,,,0.00,weatherlink.com 1.10,2013-01-26 06:12:00,
2013-01-26 01:27:00,25.1,24.0,30.13,WNW,288,4.0,8.0,96,0.00,,,0.00,weatherlink.com 1.10,2013-01-26 06:27:00,
2013-01-26 01:42:00,24.9,24.0,30.14,West,265,2.0,7.0,96,0.00,,,0.00,weatherlink.com 1.10,2013-01-26 06:42:00,
2013-01-26 01:57:00,24.7,24.0,30.14,WSW,250,3.0,9.0,96,0.00,,,0.00,weatherlink.com 1.10,2013-01-26 06:57:00,
2013-01-26 02:12:00,24.4,24.0,30.14,NW,316,4.0,10.0,96,0.00,,,0.00,weatherlink.com 1.10,2013-01-26 07:12:00,
2013-01-26 02:27:00,24.1,23.0,30.14,NW,308,1.0,12.0,96,0.00,,,0.00,weatherlink.com 1.10,2013-01-26 07:27:00,
2013-01-26 02:42:00,23.8,23.0,30.13,NE,47,1.0,8.0,95,0.00,,,0.00,weatherlink.com 1.10,2013-01-26 07:42:00,
2013-01-26 02:57:00,23.4,22.0,30.13,NNE,26,3.0,13.0,95,0.00,,,0.00,weatherlink.com 1.10,2013-01-26 07:57:00,
2013-01-26 03:12:00,23.0,22.0,30.13,WNW,291,0.0,13.0,95,0.00,,,0.00,weatherlink.com 1.10,2013-01-26 08:12:00,
2013-01-26 03:27:00,22.7,22.0,30.11,NW,320,3.0,9.0,95,0.00,,,0.00,weatherlink.com 1.10,2013-01-26 08:27:00,
2013-01-26 03:42:00,22.4,21.0,30.12,North,360,4.0,7.0,95,0.00,,,0.00,weatherlink.com 1.10,2013-01-26 08:42:00,
2013-01-26 03:58:00,22.2,21.0,30.11,NW,322,3.0,9.0,95,0.00,,,0.00,weatherlink.com 1.10,2013-01-26 08:58:00,
2013-01-26 04:12:00,21.8,21.0,30.12,NNW,332,2.0,8.0,95,0.00,,,0.00,weatherlink.com 1.10,2013-01-26 09:12:00,
2013-01-26 04:28:00,21.6,20.0,30.11,NW,315,3.0,7.0,95,0.00,,,0.00,weatherlink.com 1.10,2013-01-26 09:28:00,
2013-01-26 04:43:00,21.3,20.0,30.11,West,281,3.0,8.0,95,0.00,,,0.00,weatherlink.com 1.10,2013-01-26 09:43:00,
2013-01-26 04:58:00,21.2,20.0,30.11,WSW,241,4.0,7.0,95,0.00,,,0.00,weatherlink.com 1.10,2013-01-26 09:58:00,
2013-01-26 05:12:00,21.0,20.0,30.10,NW,315,4.0,8.0,94,0.00,,,0.00,weatherlink.com 1.10,2013-01-26 10:12:00,
2013-01-26 05:28:00,20.7,19.0,30.10,NW,323,3.0,12.0,94,0.00,,,0.00,weatherlink.com 1.10,2013-01-26 10:28:00,
2013-01-26 05:43:00,20.4,19.0,30.11,NW,322,5.0,11.0,94,0.00,,,0.00,weatherlink.com 1.10,2013-01-26 10:43:00,
2013-01-26 05:58:00,20.4,19.0,30.11,ENE,72,1.0,8.0,94,0.00,,,0.00,weatherlink.com 1.10,2013-01-26 10:58:00,
2013-01-26 06:13:00,20.3,19.0,30.11,NNE,17,4.0,11.0,94,0.00,,,0.00,weatherlink.com 1.10,2013-01-26 11:13:00,
2013-01-26 06:28:00,19.9,19.0,30.11,NNW,332,5.0,12.0,94,0.00,,,0.00,weatherlink.com 1.10,2013-01-26 11:28:00,
2013-01-26 06:43:00,20.0,19.0,30.11,NW,306,5.0,10.0,94,0.00,,,0.00,weatherlink.com 1.10,2013-01-26 11:43:00,
2013-01-26 06:58:00,19.9,19.0,30.13,WNW,302,3.0,12.0,94,0.00,,,0.00,weatherlink.com 1.10,2013-01-26 11:58:00,
2013-01-26 07:13:00,19.7,18.0,30.13,NW,323,7.0,10.0,94,0.00,,,0.00,weatherlink.com 1.10,2013-01-26 12:13:00,
2013-01-26 07:28:00,19.8,18.0,30.14,WNW,302,2.0,11.0,94,0.00,,,0.00,weatherlink.com 1.10,2013-01-26 12:28:00,
2013-01-26 07:43:00,19.7,18.0,30.13,NW,311,7.0,13.0,94,0.00,,,0.00,weatherlink.com 1.10,2013-01-26 12:43:00,
2013-01-26 07:58:00,19.7,18.0,30.13,West,273,4.0,11.0,94,0.00,,,0.00,weatherlink.com 1.10,2013-01-26 12:58:00,
2013-01-26 08:13:00,19.7,18.0,30.14,WNW,284,7.0,10.0,94,0.00,,,0.00,weatherlink.com 1.10,2013-01-26 13:13:00,
2013-01-26 08:28:00,19.6,18.0,30.14,North,355,7.0,11.0,94,0.00,,,0.00,weatherlink.com 1.10,2013-01-26 13:28:00,
2013-01-26 08:43:00,19.3,18.0,30.16,NW,313,5.0,11.0,94,0.00,,,0.00,weatherlink.com 1.10,2013-01-26 13:43:00,
2013-01-26 08:58:00,18.7,17.0,30.16,WNW,286,12.0,12.0,94,0.00,,,0.00,weatherlink.com 1.10,2013-01-26 13:58:00,
2013-01-26 09:13:00,18.5,17.0,30.17,NNW,345,5.0,12.0,94,0.00,,,0.00,weatherlink.com 1.10,2013-01-26 14:13:00,
2013-01-26 09:28:00,18.3,17.0,30.18,WSW,248,5.0,12.0,94,0.00,,,0.00,weatherlink.com 1.10,2013-01-26 14:28:00,
2013-01-26 09:43:00,18.6,17.0,30.19,West,279,5.0,9.0,94,0.00,,,0.00,weatherlink.com 1.10,2013-01-26 14:43:00,
2013-01-26 09:58:00,19.0,18.0,30.20,WNW,301,2.0,10.0,94,0.00,,,0.00,weatherlink.com 1.10,2013-01-26 14:58:00,
2013-01-26 10:13:00,19.5,18.0,30.20,WNW,286,5.0,8.0,94,0.00,,,0.00,weatherlink.com 1.10,2013-01-26 15:13:00,
2013-01-26 10:28:00,18.9,18.0,30.21,NNE,28,4.0,10.0,94,0.00,,,0.00,weatherlink.com 1.10,2013-01-26 15:28:00,
2013-01-26 10:43:00,19.4,18.0,30.21,WNW,298,6.0,8.0,94,0.00,,,0.00,weatherlink.com 1.10,2013-01-26 15:43:00,
2013-01-26 10:58:00,20.0,19.0,30.23,NW,306,3.0,8.0,94,0.00,,,0.00,weatherlink.com 1.10,2013-01-26 15:58:00,
2013-01-26 11:13:00,20.4,19.0,30.23,WNW,296,5.0,10.0,94,0.00,,,0.00,weatherlink.com 1.10,2013-01-26 16:13:00,
2013-01-26 11:28:00,20.4,19.0,30.23,WSW,252,2.0,8.0,94,0.00,,,0.00,weatherlink.com 1.10,2013-01-26 16:28:00,
2013-01-26 11:43:00,20.1,19.0,30.23,WNW,296,4.0,7.0,94,0.00,,,0.00,weatherlink.com 1.10,2013-01-26 16:43:00,
2013-01-26 11:58:00,19.9,19.0,30.23,NNW,342,1.0,7.0,94,0.00,,,0.00,weatherlink.com 1.10,2013-01-26 16:58:00,
2013-01-26 12:13:00,20.2,19.0,30.22,NW,304,3.0,8.0,94,0.00,,,0.00,weatherlink.com 1.10,2013-01-26 17:13:00,
2013-01-26 12:28:00,20.5,19.0,30.20,North,355,5.0,10.0,94,0.00,,,0.00,weatherlink.com 1.10,2013-01-26 17:28:00,
2013-01-26 12:43:00,21.3,20.0,30.20,NNW,336,4.0,10.0,95,0.00,,,0.00,weatherlink.com 1.10,2013-01-26 17:43:00,
2013-01-26 13:13:00,22.5,21.0,30.20,NW,323,4.0,8.0,95,0.00,,,0.00,weatherlink.com 1.10,2013-01-26 18:13:00,
2013-01-26 13:28:00,22.4,21.0,30.20,NW,314,0.0,11.0,95,0.00,,,0.00,weatherlink.com 1.10,2013-01-26 18:28:00,
2013-01-26 13:43:00,23.3,22.0,30.20,NW,320,1.0,8.0,95,0.00,,,0.00,weatherlink.com 1.10,2013-01-26 18:43:00,
2013-01-26 13:59:00,24.1,23.0,30.19,WNW,288,6.0,8.0,95,0.00,,,0.00,weatherlink.com 1.10,2013-01-26 18:59:00,
2013-01-26 14:13:00,24.1,23.0,30.20,WNW,298,5.0,9.0,95,0.00,,,0.00,weatherlink.com 1.10,2013-01-26 19:13:00,
2013-01-26 14:29:00,24.0,23.0,30.20,NW,309,3.0,11.0,95,0.00,,,0.00,weatherlink.com 1.10,2013-01-26 19:29:00,
2013-01-26 14:43:00,24.1,23.0,30.20,West,281,7.0,11.0,95,0.00,,,0.00,weatherlink.com 1.10,2013-01-26 19:43:00,
2013-01-26 14:58:00,23.9,23.0,30.21,West,260,1.0,7.0,95,0.00,,,0.00,weatherlink.com 1.10,2013-01-26 19:58:00,
2013-01-26 15:14:00,23.9,23.0,30.21,WNW,292,1.0,9.0,95,0.00,,,0.00,weatherlink.com 1.10,2013-01-26 20:14:00,
2013-01-26 15:29:00,24.0,23.0,30.22,NNW,346,3.0,9.0,95,0.00,,,0.00,weatherlink.com 1.10,2013-01-26 20:29:00,
2013-01-26 15:43:00,23.5,22.0,30.23,SW,231,4.0,7.0,95,0.00,,,0.00,weatherlink.com 1.10,2013-01-26 20:43:00,
2013-01-26 15:59:00,23.7,23.0,30.23,NW,313,4.0,9.0,95,0.00,,,0.00,weatherlink.com 1.10,2013-01-26 20:59:00,
2013-01-26 16:13:00,24.1,23.0,30.23,NW,309,4.0,9.0,95,0.00,,,0.00,weatherlink.com 1.10,2013-01-26 21:13:00,
2013-01-26 16:29:00,23.9,23.0,30.24,WNW,296,3.0,8.0,95,0.00,,,0.00,weatherlink.com 1.10,2013-01-26 21:29:00,
2013-01-26 16:43:00,23.4,22.0,30.24,North,351,4.0,9.0,95,0.00,,,0.00,weatherlink.com 1.10,2013-01-26 21:43:00,
2013-01-26 16:58:00,23.3,22.0,30.25,NW,324,2.0,9.0,95,0.00,,,0.00,weatherlink.com 1.10,2013-01-26 21:58:00,
2013-01-26 17:14:00,23.1,22.0,30.25,NNE,26,4.0,10.0,95,0.00,,,0.00,weatherlink.com 1.10,2013-01-26 22:14:00,
2013-01-26 17:28:00,23.0,22.0,30.26,SW,234,3.0,12.0,95,0.00,,,0.00,weatherlink.com 1.10,2013-01-26 22:28:00,
2013-01-26 17:44:00,22.7,22.0,30.25,WNW,298,3.0,9.0,95,0.00,,,0.00,weatherlink.com 1.10,2013-01-26 22:44:00,
2013-01-26 17:59:00,22.5,21.0,30.26,West,259,7.0,10.0,94,0.00,,,0.00,weatherlink.com 1.10,2013-01-26 22:59:00,
2013-01-26 18:14:00,22.4,21.0,30.27,West,277,6.0,11.0,93,0.00,,,0.00,weatherlink.com 1.10,2013-01-26 23:14:00,
2013-01-26 18:29:00,22.7,21.0,30.27,NW,306,5.0,12.0,91,0.00,,,0.00,weatherlink.com 1.10,2013-01-26 23:29:00,
2013-01-26 18:44:00,23.1,21.0,30.28,NNW,330,6.0,13.0,90,0.00,,,0.00,weatherlink.com 1.10,2013-01-26 23:44:00,
2013-01-26 18:59:00,23.5,21.0,30.29,WSW,242,4.0,10.0,89,0.00,,,0.00,weatherlink.com 1.10,2013-01-26 23:59:00,
2013-01-26 19:14:00,23.7,21.0,30.29,WNW,298,4.0,8.0,88,0.00,,,0.00,weatherlink.com 1.10,2013-01-27 00:14:00,
2013-01-26 19:29:00,23.9,21.0,30.30,NW,323,4.0,7.0,87,0.00,,,0.00,weatherlink.com 1.10,2013-01-27 00:29:00,
2013-01-26 19:44:00,24.4,20.0,30.31,NW,310,3.0,8.0,83,0.00,,,0.00,weatherlink.com 1.10,2013-01-27 00:44:00,
2013-01-26 19:59:00,24.7,20.0,30.32,NW,317,3.0,8.0,82,0.00,,,0.00,weatherlink.com 1.10,2013-01-27 00:59:00,
2013-01-26 20:14:00,25.7,19.0,30.32,NNW,333,5.0,12.0,77,0.00,,,0.00,weatherlink.com 1.10,2013-01-27 01:14:00,
2013-01-26 20:29:00,26.2,19.0,30.33,WNW,298,2.0,12.0,75,0.00,,,0.00,weatherlink.com 1.10,2013-01-27 01:29:00,
2013-01-26 20:44:00,26.1,19.0,30.33,NNW,332,5.0,13.0,73,0.00,,,0.00,weatherlink.com 1.10,2013-01-27 01:44:00,
2013-01-26 20:59:00,25.8,18.0,30.33,SW,234,2.0,10.0,71,0.00,,,0.00,weatherlink.com 1.10,2013-01-27 01:59:00,
2013-01-26 21:14:00,26.1,18.0,30.34,WSW,249,6.0,11.0,70,0.00,,,0.00,weatherlink.com 1.10,2013-01-27 02:14:00,
2013-01-26 21:29:00,26.1,17.0,30.34,West,263,5.0,11.0,68,0.00,,,0.00,weatherlink.com 1.10,2013-01-27 02:29:00,
2013-01-26 21:44:00,26.3,17.0,30.35,WSW,257,3.0,11.0,67,0.00,,,0.00,weatherlink.com 1.10,2013-01-27 02:44:00,
2013-01-26 21:59:00,26.5,16.0,30.35,East,101,1.0,11.0,66,0.00,,,0.00,weatherlink.com 1.10,2013-01-27 02:59:00,
2013-01-26 22:14:00,26.9,15.0,30.36,SW,218,5.0,9.0,62,0.00,,,0.00,weatherlink.com 1.10,2013-01-27 03:14:00,
2013-01-26 22:29:00,27.3,15.0,30.36,SW,216,0.0,5.0,61,0.00,,,0.00,weatherlink.com 1.10,2013-01-27 03:29:00,
2013-01-26 22:44:00,27.9,11.0,30.37,SW,215,6.0,8.0,50,0.00,,,0.00,weatherlink.com 1.10,2013-01-27 03:44:00,
2013-01-26 22:59:00,30.7,13.0,30.38,South,188,1.0,8.0,48,0.00,,,0.00,weatherlink.com 1.10,2013-01-27 03:59:00,
2013-01-26 23:14:00,31.5,13.0,30.38,SE,135,2.0,7.0,47,0.00,,,0.00,weatherlink.com 1.10,2013-01-27 04:14:00,
2013-01-26 23:29:00,31.4,14.0,30.38,SSE,153,0.0,7.0,49,0.00,,,0.00,weatherlink.com 1.10,2013-01-27 04:29:00,
2013-01-26 23:44:00,29.6,14.0,30.39,South,178,0.0,2.0,53,0.00,,,0.00,weatherlink.com 1.10,2013-01-27 04:44:00,
2013-01-26 23:59:00,29.6,11.0,30.39,SSE,159,0.0,4.0,47,0.00,,,0.00,weatherlink.com 1.10,2013-01-27 04:59:00,